Wind_Speed
7 8 8 8 7 6 5 5 4 3 2 2 1 1 1 1 2 3 4 5 5 5 6 6 6 5 5 4 4 4 3 2 2 2 2 3 3 4 5 6 6 6 6
8 9 8 7 7 6 6 5 4 4 3 2 1 1 1 1 1 2 3 4 5 5 5 5 5 5 5 5 4 4 3 2 2 1 1 1 3 3 4 5 6 6 6
9 9 8 8 8 7 7 6 5 4 4 3 2 1 1 1 1 1 2 3 4 5 5 5 5 5 5 5 5 4 3 2 2 1 0 1 2 3 4 4 5 5 6
9 9 9 9 9 8 8 7 6 5 4 4 3 2 1 0 1 1 2 2 3 4 5 5 5 5 5 5 5 4 4 3 2 1 1 1 2 3 4 4 5 5 5
9 9 9 10 9 9 8 8 7 6 5 4 3 2 1 1 1 1 2 2 3 3 4 5 4 4 5 5 4 4 4 3 3 3 2 1 0 2 3 4 4 5 5
10 10 10 10 10 9 9 9 8 7 6 5 4 3 3 2 1 1 1 1 2 3 4 4 4 4 5 5 5 4 4 3 3 3 2 1 1 1 2 3 4 5 5
10 10 10 10 10 9 9 9 9 8 7 6 5 5 4 3 2 1 1 0 1 2 3 3 4 4 5 5 5 5 4 4 4 3 2 2 2 2 2 3 3 4 5
10 10 10 10 10 10 9 9 10 9 8 7 6 6 5 4 4 2 2 1 1 1 2 2 3 3 4 4 4 4 4 4 4 4 3 3 2 2 2 3 4 4 5
11 11 11 10 10 10 10 10 9 9 8 8 7 6 6 6 5 4 3 2 2 2 2 1 1 2 3 4 4 4 5 5 5 4 3 3 3 3 3 4 4 5 5
11 11 11 11 11 11 11 11 9 9 9 7 7 7 7 7 6 6 5 4 3 2 3 3 3 3 3 3 4 4 5 5 5 5 4 4 4 4 5 5 6 6 6
10 10 11 11 11 11 11 11 11 10 9 8 8 7 8 8 7 7 6 6 5 5 5 5 4 5 5 5 5 5 5 5 6 5 5 6 6 7 7 7 8 8 8
8 8 9 10 11 11 10 11 10 10 9 8 8 8 9 9 9 8 8 8 7 7 7 6 6 6 6 7 7 6 6 7 7 7 8 8 8 8 9 9 9 10 10
8 8 9 10 10 10 10 10 10 10 10 9 9 9 9 9 9 9 9 9 8 8 9 8 8 8 8 8 8 8 9 9 9 9 9 10 10 10 10 10 11 12 13
9 9 9 9 9 10 10 10 10 10 10 10 10 9 9 10 10 11 11 10 10 10 10 10 10 10 10 10 10 10 10 10 11 11 11 12 11 12 12 13 13 14 15
10 10 9 9 10 10 10 10 10 10 10 11 10 10 10 10 11 11 12 12 12 12 11 12 12 12 12 12 12 12 12 13 13 13 14 14 14 14 14 15 16 16 17
10 10 10 10 10 10 10 10 10 11 11 11 11 11 11 11 12 12 12 13 13 13 13 14 14 14 14 14 14 14 14 15 15 15 15 16 16 16 17 17 18 19 20
10 10 11 11 10 11 11 10 11 11 11 12 12 13 13 13 13 13 13 14 14 15 15 15 16 16 16 16 16 16 16 16 16 16 17 17 17 18 18 19 20 21 21
11 12 12 12 12 11 12 12 12 12 13 13 13 14 14 15 15 14 15 15 15 16 16 17 17 17 18 18 18 18 18 18 19 19 19 19 19 19 20 21 21 22 22
12 12 12 13 13 13 13 13 14 14 15 14 15 15 16 16 15 15 16 16 16 17 17 18 19 19 19 19 19 20 20 20 21 20 20 20 21 21 21 22 22 23 24
13 13 13 13 14 14 14 14 15 15 16 16 16 17 17 16 16 17 17 17 17 17 18 19 19 19 20 20 20 21 21 21 21 22 22 22 23 23 23 23 24 25 26
13 13 13 14 15 15 15 15 15 15 16 16 17 17 17 17 17 18 18 19 19 19 19 20 20 21 21 21 21 22 22 21 22 23 24 24 25 25 26 25 26 27 27
13 13 14 15 15 15 15 16 16 16 17 17 18 17 17 17 18 18 19 19 20 20 20 21 21 21 21 21 22 22 23 23 23 24 25 26 26 27 27 28 28 28 29
14 14 15 15 15 15 15 15 16 17 18 18 18 19 19 18 19 20 20 20 21 21 21 22 22 22 22 22 23 24 24 25 25 26 26 27 27 28 29 29 30 31 32
15 15 15 15 15 15 15 15 16 17 18 19 19 20 20 20 20 21 21 21 22 22 22 23 23 23 23 24 24 25 25 26 26 27 28 28 29 30 31 32 33 33 34
16 16 15 15 15 15 16 16 17 17 18 18 19 19 20 20 21 21 21 22 22 23 23 23 24 24 25 25 26 26 27 28 28 29 29 30 31 32 32 33 34 35 36
16 16 16 16 16 16 16 16 16 17 17 18 19 19 19 20 20 20 21 22 23 24 24 24 24 25 26 27 28 28 28 29 29 30 30 31 31 32 34 35 36 37 38
Wind_Direction
239 236 233 227 226 217 210 210 210 205 213 211 225 294 337 15 25 24 33 34 34 33 34 38 43 47 51 56 59 66 68 81 100 127 150 172 186 196 204 208 211 216 220
242 234 233 221 220 217 213 207 210 211 211 204 215 260 310 7 20 27 34 35 33 33 38 45 48 49 52 55 60 68 70 76 88 104 134 180 196 210 218 216 211 214 221
240 230 225 219 215 216 219 210 209 217 214 210 215 235 280 18 26 34 42 35 35 37 40 44 47 49 49 48 49 54 62 68 70 63 154 200 214 217 216 211 208 216 222
237 229 225 219 215 215 218 216 215 220 217 214 219 219 220 27 58 60 58 49 39 37 41 41 43 44 44 44 42 41 44 48 45 32 8 270 239 210 199 204 212 222 228
235 229 225 219 216 217 216 217 214 221 222 220 224 211 212 210 149 107 82 51 37 36 40 40 42 42 40 38 37 34 30 29 25 20 31 34 217 204 200 201 218 230 234
233 228 222 221 220 218 218 217 214 216 219 220 223 210 210 200 170 143 121 34 31 32 35 38 40 43 42 38 36 31 25 20 19 21 28 23 4 234 220 218 231 237 241
231 230 229 224 218 217 217 215 212 214 223 227 225 218 212 209 202 189 177 320 3 16 31 35 37 41 39 34 31 28 26 22 16 12 5 340 323 309 261 250 247 247 250
228 228 227 223 217 216 216 218 215 216 222 226 223 218 219 218 216 215 216 244 294 339 2 17 29 32 29 26 23 20 11 7 4 359 355 346 327 307 293 276 276 275 269
226 226 226 222 220 218 219 220 216 216 218 221 219 217 223 224 225 227 226 243 263 284 309 323 353 7 9 15 14 5 357 353 346 340 334 333 319 303 296 288 287 285 281
231 229 226 220 220 221 223 223 221 216 216 220 217 220 226 232 235 232 233 246 262 277 288 291 307 319 327 338 345 349 351 349 342 335 328 326 325 319 304 295 293 289 284
228 224 222 220 221 223 227 225 223 221 221 223 222 228 233 235 236 237 242 252 255 262 271 278 285 292 298 303 312 324 329 330 327 323 315 309 306 302 301 299 295 292 288
218 218 221 222 221 224 227 226 222 223 223 225 229 233 236 237 240 243 247 254 258 262 265 270 275 282 285 292 298 303 307 309 313 312 308 307 305 300 295 292 290 290 289
221 223 223 223 224 225 226 227 226 226 227 232 235 235 238 240 245 250 255 259 259 263 266 270 273 277 280 285 292 296 299 303 305 305 305 305 304 298 294 292 292 293 292
226 225 225 225 227 228 226 228 230 230 232 237 242 240 242 248 250 255 257 261 263 265 268 272 275 277 279 283 289 292 293 296 298 300 300 302 300 295 294 294 293 293 293
228 228 227 226 229 231 230 231 232 234 238 241 245 247 250 253 258 259 260 260 263 267 272 276 276 276 277 282 285 289 292 292 293 294 295 297 297 295 295 294 293 293 292
231 231 231 229 229 231 233 235 236 237 242 246 249 253 256 258 262 262 260 262 263 266 272 276 277 278 279 280 283 286 289 291 292 291 292 293 293 293 293 294 294 294 293
233 230 231 230 231 233 237 239 240 240 245 249 252 256 257 260 262 262 262 266 266 267 271 275 277 277 278 279 281 284 287 289 290 291 292 292 291 291 292 294 295 295 295
237 237 235 235 238 241 245 246 246 247 250 255 257 258 260 262 263 262 264 267 271 271 272 275 277 278 279 279 280 283 287 289 290 291 292 291 291 291 292 293 295 296 296
238 242 241 241 244 248 250 250 251 253 256 260 261 262 264 265 263 263 265 268 272 275 275 277 278 278 278 280 282 283 285 287 289 291 292 292 292 291 291 291 293 294 295
243 245 246 247 250 253 253 253 255 257 258 261 263 263 264 265 265 266 269 272 275 277 278 278 278 279 279 280 283 283 284 286 288 290 291 291 291 291 291 292 293 294 295
247 250 251 252 255 257 256 256 258 261 263 263 264 267 266 266 267 269 272 273 275 276 279 281 280 281 280 282 284 287 288 287 289 290 290 290 291 291 291 292 293 294 295
254 257 258 256 258 260 260 259 260 263 265 265 267 268 269 269 269 270 272 274 276 277 278 280 282 282 281 282 284 287 289 288 289 290 290 290 292 292 293 293 293 294 295
258 262 262 260 261 263 263 262 262 262 264 265 268 270 272 272 272 272 272 274 277 277 278 280 280 281 282 283 284 286 288 288 288 289 291 291 292 293 293 294 294 295 295
259 261 262 262 262 263 264 264 265 263 265 266 268 270 273 272 274 274 274 274 275 277 280 282 282 282 282 283 284 285 286 288 288 289 290 291 291 291 293 294 294 295 296
258 260 261 263 264 264 264 264 265 265 267 268 268 269 273 274 275 276 277 277 278 281 282 282 283 284 284 284 284 285 285 287 287 289 290 291 292 292 293 294 296 296 297
258 261 264 265 264 265 267 268 266 266 268 269 269 271 274 276 276 276 277 278 279 280 280 282 283 283 283 284 286 287 287 288 288 289 289 290 292 293 294 295 295 296 297
Height
5868 5869 5869 5870 5871 5872 5873 5874 5875 5875 5876 5876 5876 5876 5876 5875 5875 5874 5873 5872 5871 5870 5869 5868 5867 5866 5865 5865 5864 5863 5863 5863 5863 5863 5863 5864 5864 5865 5866 5867 5868 5870 5871
5866 5867 5868 5869 5870 5871 5872 5873 5874 5875 5875 5875 5876 5876 5875 5875 5875 5874 5873 5873 5872 5871 5870 5869 5868 5867 5866 5865 5865 5864 5864 5863 5863 5864 5863 5864 5865 5865 5865 5866 5867 5868 5870
5864 5865 5866 5868 5869 5870 5871 5872 5873 5874 5874 5875 5875 5875 5875 5875 5875 5874 5874 5873 5872 5871 5870 5869 5869 5868 5867 5866 5865 5865 5864 5864 5864 5864 5864 5864 5864 5864 5865 5865 5866 5867 5868
5863 5863 5865 5866 5867 5869 5870 5871 5872 5873 5874 5874 5875 5875 5875 5875 5874 5874 5874 5873 5873 5872 5871 5870 5869 5869 5868 5867 5866 5866 5865 5865 5864 5864 5864 5863 5863 5863 5864 5865 5865 5866 5867
5861 5862 5863 5864 5866 5867 5869 5870 5871 5872 5873 5873 5874 5874 5874 5874 5874 5874 5874 5874 5873 5872 5872 5871 5870 5870 5869 5868 5867 5867 5866 5865 5865 5864 5863 5863 5862 5862 5863 5864 5865 5865 5866
5859 5860 5862 5863 5864 5866 5867 5868 5869 5871 5872 5872 5873 5874 5874 5874 5874 5874 5874 5874 5874 5873 5872 5872 5871 5870 5870 5869 5868 5867 5867 5866 5865 5864 5864 5863 5863 5862 5863 5863 5864 5864 5865
5857 5859 5860 5861 5863 5864 5866 5867 5868 5869 5870 5871 5872 5873 5873 5874 5874 5874 5874 5874 5874 5873 5873 5872 5872 5871 5870 5869 5869 5868 5867 5866 5866 5865 5864 5863 5863 5863 5863 5863 5863 5863 5864
5855 5857 5858 5860 5861 5863 5864 5866 5867 5868 5869 5870 5871 5872 5873 5873 5874 5874 5874 5874 5874 5873 5873 5873 5872 5872 5871 5870 5869 5868 5868 5867 5866 5865 5864 5863 5863 5863 5862 5862 5862 5862 5863
5854 5855 5857 5858 5860 5861 5863 5864 5865 5866 5868 5869 5870 5871 5872 5872 5873 5873 5873 5873 5873 5873 5873 5873 5872 5872 5871 5870 5870 5869 5868 5867 5866 5865 5864 5863 5863 5862 5862 5862 5862 5862 5862
5852 5853 5855 5856 5858 5859 5861 5862 5864 5865 5866 5867 5868 5869 5870 5871 5872 5872 5872 5873 5873 5873 5873 5873 5872 5872 5871 5870 5870 5869 5868 5867 5866 5865 5864 5863 5862 5862 5861 5861 5861 5860 5860
5850 5851 5852 5854 5856 5858 5859 5861 5862 5863 5865 5866 5867 5868 5869 5870 5870 5871 5871 5872 5872 5872 5872 5872 5871 5871 5871 5870 5869 5868 5867 5866 5865 5864 5863 5862 5862 5861 5860 5860 5859 5859 5858
5848 5850 5851 5853 5854 5856 5857 5859 5860 5862 5863 5864 5865 5866 5867 5868 5869 5869 5870 5870 5870 5870 5870 5870 5870 5870 5869 5869 5868 5867 5867 5866 5865 5864 5863 5862 5860 5859 5859 5858 5857 5856 5856
5847 5848 5850 5851 5853 5854 5856 5857 5859 5860 5861 5862 5864 5865 5865 5866 5867 5867 5868 5868 5868 5868 5868 5868 5868 5868 5868 5867 5867 5866 5865 5864 5863 5862 5861 5860 5859 5858 5857 5856 5855 5854 5853
5846 5847 5848 5850 5851 5853 5854 5855 5857 5858 5859 5860 5861 5862 5863 5864 5865 5865 5866 5866 5866 5866 5866 5866 5866 5866 5865 5865 5865 5864 5863 5862 5861 5860 5859 5858 5857 5855 5854 5853 5852 5851 5850
5845 5846 5847 5848 5850 5851 5852 5854 5855 5856 5857 5858 5859 5860 5861 5861 5862 5862 5863 5863 5864 5864 5864 5863 5863 5863 5863 5862 5862 5861 5860 5859 5858 5857 5856 5855 5854 5852 5851 5850 5849 5847 5846
5843 5844 5845 5847 5848 5849 5850 5851 5852 5853 5854 5855 5856 5857 5858 5859 5859 5859 5860 5860 5860 5861 5861 5860 5860 5860 5859 5859 5858 5857 5857 5856 5855 5854 5853 5851 5850 5849 5848 5846 5845 5843 5842
5841 5842 5843 5844 5846 5847 5848 5849 5850 5851 5852 5853 5854 5854 5855 5855 5856 5856 5856 5857 5857 5857 5857 5857 5856 5856 5856 5855 5854 5854 5853 5852 5851 5850 5849 5847 5846 5844 5843 5842 5840 5839 5837
5839 5840 5841 5842 5843 5844 5845 5846 5847 5848 5849 5849 5850 5851 5851 5852 5852 5853 5853 5853 5853 5853 5853 5853 5852 5852 5851 5851 5850 5849 5848 5847 5846 5845 5844 5843 5841 5840 5838 5837 5835 5833 5831
5836 5837 5838 5839 5840 5841 5842 5843 5844 5845 5845 5846 5846 5847 5847 5848 5848 5849 5849 5849 5849 5849 5849 5848 5848 5847 5847 5846 5845 5844 5844 5843 5842 5840 5839 5837 5836 5835 5833 5831 5829 5827 5825
5833 5834 5835 5836 5837 5838 5838 5839 5840 5841 5841 5842 5842 5842 5843 5843 5844 5844 5845 5845 5845 5845 5844 5844 5843 5842 5842 5841 5840 5839 5838 5837 5836 5835 5833 5832 5830 5829 5827 5825 5823 5821 5819
5830 5830 5831 5832 5833 5834 5834 5835 5836 5836 5837 5837 5838 5838 5838 5839 5839 5840 5840 5840 5840 5840 5839 5839 5838 5837 5836 5835 5835 5833 5832 5831 5830 5829 5827 5826 5824 5822 5820 5819 5817 5814 5812
5827 5827 5828 5828 5829 5829 5830 5831 5831 5832 5832 5833 5833 5834 5834 5834 5835 5835 5835 5835 5835 5834 5834 5833 5832 5831 5831 5830 5829 5828 5826 5825 5824 5823 5821 5819 5817 5815 5813 5811 5809 5807 5804
5823 5823 5824 5824 5825 5825 5826 5826 5827 5827 5828 5828 5829 5829 5829 5829 5830 5830 5830 5830 5829 5829 5828 5827 5827 5826 5825 5824 5823 5821 5820 5819 5817 5816 5814 5812 5810 5808 5805 5803 5801 5798 5796
5819 5819 5820 5820 5820 5821 5822 5822 5822 5822 5823 5823 5824 5824 5824 5824 5824 5824 5824 5824 5823 5823 5822 5821 5820 5819 5818 5817 5816 5814 5813 5812 5810 5808 5806 5804 5802 5800 5797 5795 5792 5789 5787
5815 5815 5816 5816 5816 5817 5817 5817 5818 5818 5818 5818 5819 5819 5819 5819 5818 5818 5818 5817 5817 5816 5816 5815 5814 5812 5811 5810 5809 5807 5806 5804 5802 5800 5798 5796 5794 5791 5789 5786 5783 5780 5777
5810 5811 5811 5812 5812 5812 5812 5812 5813 5813 5813 5813 5813 5813 5813 5813 5813 5812 5811 5811 5811 5810 5809 5808 5807 5805 5804 5802 5801 5799 5798 5796 5794 5792 5790 5787 5785 5782 5780 5777 5774 5770 5767